Change the Weather History Date:

Thursday, February 6, 2014

  Actual Average Record
Temperature  
Mean Temperature 21 °F 48 °F  
Max Temperature 25 °F 59 °F 83 °F (1925)
Min Temperature 17 °F 37 °F 14 °F (1982)
Degree Days  
Heating Degree Days 44 17  
Month to date heating degree days 171 105  
Since 1 July heating degree days 1846 1610  
Cooling Degree Days 0 0  
Month to date cooling degree days 0 0  
Year to date cooling degree days 0 2  
Moisture  
Dew Point 13 °F    
Average Humidity 71    
Maximum Humidity 80    
Minimum Humidity 62    
Precipitation  
Precipitation 0.05 in 0.08 in 0.94 in (1997)
Month to date precipitation 0.36 0.48  
Year to date precipitation 0.69 2.61  
Snow  
Snow 1.00 in 0.00 in 2.60 in (1961)
Month to date snowfall 2.0 0.1  
Since 1 July snowfall 4.1 0.7  
Snow Depth 0.00 in    
Sea Level Pressure  
Sea Level Pressure 30.52 in    
Wind  
Wind Speed 12 mph (North)    
Max Wind Speed 22 mph    
Max Gust Speed 26 mph    
Visibility 6 miles    
Events Snow    
T = Trace of Precipitation, MM = Missing Value Source: NWS Daily Summary

Daily Weather History Graph

Daily Weather History Graph

Search for Another Location

Airport or City:

Trip Planner

Search our weather history database for the weather conditions in past years. The results will help you decide how hot, cold, wet, or windy it might be!

Date:

Astronomy

Feb. 06, 2014 Rise Set
Actual Time 7:19 AM CST 6:05 PM CST
Civil Twilight 6:53 AM CST 6:30 PM CST
Nautical Twilight 6:24 AM CST 7:00 PM CST
Astronomical Twilight 5:55 AM CST 7:29 PM CST
Moon 11:39 AM CST (2/6) 12:36 AM CST (2/6)
Length of Visible Light 11h 37m
Length of Day
10h 45m
Waxing Crescent, 49% of the Moon is Illuminated
Feb 6
Waxing Crescent
Feb 6
First Quarter
Feb 14
Full
Feb 22
Last Quarter
Mar 1
New

Hourly Weather History & Observations

Time (CST) Temp. Windchill Dew Point Humidity Pressure Visibility Wind Dir Wind Speed Gust Speed Precip Events Conditions
12:53 AM 21.0 °F 8.6 °F 10.9 °F 65% 30.53 in 10.0 mi North 12.7 mph - N/A   Overcast
1:31 AM 21.0 °F 7.6 °F 10.9 °F 65% 30.53 in 10.0 mi North 15.0 mph - N/A   Overcast
1:53 AM 19.9 °F 5.7 °F 10.0 °F 65% 30.54 in 10.0 mi North 16.1 mph - N/A   Overcast
2:53 AM 19.9 °F 3.9 °F 9.0 °F 62% 30.53 in 10.0 mi North 20.7 mph - N/A   Overcast
3:40 AM 19.0 °F 5.0 °F 8.1 °F 62% 30.54 in 10.0 mi North 15.0 mph - N/A   Overcast
3:53 AM 19.0 °F 4.0 °F 8.1 °F 62% 30.56 in 10.0 mi North 17.3 mph - N/A   Overcast
4:53 AM 19.0 °F 5.6 °F 9.0 °F 65% 30.54 in 10.0 mi North 13.8 mph - N/A   Overcast
5:06 AM 19.0 °F 4.0 °F 8.1 °F 62% 30.52 in 10.0 mi North 17.3 mph - N/A   Overcast
5:53 AM 19.0 °F 4.5 °F 8.1 °F 62% 30.55 in 10.0 mi North 16.1 mph - N/A   Overcast
6:53 AM 18.0 °F 3.6 °F 8.1 °F 65% 30.56 in 7.0 mi North 15.0 mph - 0.00 in Snow Light Snow
7:11 AM 17.1 °F 2.5 °F 10.0 °F 74% 30.54 in 2.0 mi North 15.0 mph - 0.00 in Snow Light Snow
7:27 AM 17.1 °F 3.0 °F 10.9 °F 77% 30.55 in 1.5 mi North 13.8 mph - 0.00 in Snow Light Snow
7:53 AM 17.1 °F 3.0 °F 10.9 °F 77% 30.57 in 1.0 mi North 13.8 mph - 0.01 in Snow Light Snow
8:02 AM 17.1 °F 2.5 °F 10.9 °F 77% 30.55 in 0.8 mi North 15.0 mph - 0.00 in Snow Light Snow
8:35 AM 17.1 °F 3.6 °F 12.0 °F 81% 30.56 in 0.8 mi North 12.7 mph - 0.02 in Snow Light Snow
8:53 AM 17.1 °F 5.0 °F 12.0 °F 81% 30.58 in 0.8 mi North 10.4 mph - 0.02 in Snow Light Snow
9:04 AM 17.1 °F 3.6 °F 12.0 °F 81% 30.57 in 1.2 mi North 12.7 mph - 0.01 in Snow Light Snow
9:24 AM 18.0 °F 4.8 °F 12.0 °F 78% 30.57 in 2.0 mi North 12.7 mph - 0.01 in Snow Light Snow
9:47 AM 17.6 °F 3.7 °F 12.2 °F 79% 30.58 in 1.8 mi North 13.8 mph - 0.01 in Snow Light Snow
9:53 AM 18.0 °F 4.2 °F 12.0 °F 78% 30.60 in 2.0 mi North 13.8 mph - 0.01 in Snow Light Snow
10:04 AM 18.0 °F 5.4 °F 12.0 °F 78% 30.58 in 1.5 mi North 11.5 mph - 0.00 in Snow Light Snow
10:20 AM 18.0 °F 4.8 °F 12.9 °F 81% 30.58 in 0.8 mi North 12.7 mph - 0.00 in Snow Light Snow
10:53 AM 19.0 °F 7.5 °F 12.9 °F 77% 30.60 in 0.8 mi North 10.4 mph - 0.00 in Snow Light Snow
11:37 AM 19.9 °F 7.3 °F 14.0 °F 78% 30.55 in 0.8 mi North 12.7 mph - 0.01 in Snow Light Snow
11:46 AM 19.9 °F 7.3 °F 14.0 °F 78% 30.55 in 1.5 mi North 12.7 mph - 0.01 in Snow Light Snow
11:53 AM 19.9 °F 7.9 °F 12.9 °F 74% 30.57 in 1.5 mi North 11.5 mph - 0.01 in Snow Light Snow
12:53 PM 21.0 °F 8.6 °F 14.0 °F 74% 30.53 in 1.5 mi North 12.7 mph - 0.00 in Snow Light Snow
1:02 PM 21.9 °F 9.8 °F 15.1 °F 75% 30.50 in 5.0 mi North 12.7 mph - 0.00 in Snow Light Snow
1:53 PM 23.0 °F 11.7 °F 15.1 °F 72% 30.50 in 9.0 mi North 11.5 mph - 0.00 in Snow Light Snow
2:53 PM 24.1 °F 13.7 °F 16.0 °F 71% 30.47 in 10.0 mi North 10.4 mph - 0.00 in   Overcast
3:53 PM 24.1 °F 14.4 °F 16.0 °F 71% 30.47 in 10.0 mi North 9.2 mph - N/A   Overcast
4:53 PM 24.1 °F 13.7 °F 16.0 °F 71% 30.45 in 10.0 mi North 10.4 mph - N/A   Overcast
5:53 PM 24.1 °F 13.7 °F 15.1 °F 69% 30.45 in 10.0 mi NNE 10.4 mph - N/A   Overcast
6:53 PM 23.0 °F 13.1 °F 15.1 °F 72% 30.45 in 10.0 mi North 9.2 mph - N/A   Overcast
7:53 PM 23.0 °F 13.1 °F 15.1 °F 72% 30.46 in 10.0 mi NNE 9.2 mph - N/A   Overcast
8:41 PM 23.0 °F 13.9 °F 15.1 °F 72% 30.45 in 10.0 mi NNE 8.1 mph - N/A   Overcast
8:53 PM 23.0 °F 13.1 °F 15.1 °F 72% 30.46 in 10.0 mi NNE 9.2 mph - N/A   Overcast
9:14 PM 23.0 °F 13.9 °F 15.1 °F 72% 30.43 in 10.0 mi NE 8.1 mph - N/A   Overcast
9:53 PM 23.0 °F 13.1 °F 15.1 °F 72% 30.46 in 10.0 mi North 9.2 mph - N/A   Overcast
10:53 PM 23.0 °F 13.1 °F 15.1 °F 72% 30.44 in 10.0 mi NNE 9.2 mph - N/A   Overcast
11:53 PM 23.0 °F 15.8 °F 15.1 °F 72% 30.43 in 10.0 mi NNE 5.8 mph - N/A   Overcast